Portada
METAR-TAF:

METAR-TAF

Aeroports :

Poteau, Oklahoma, Estats Units d'Amèrica

latitud: 35-01-18N, longitud: 094-37-17W, altitud: 138 m

Observació

L'informe es va fer fa 24 minuts, a les 17:15 UTC
Vent 13 kt del Sud amb ràfegues de 22 kt
Temperatura 18°C
Humitat 68%
Pressió 1009 hPa
Visibilitat: 16.1 km
Cel cobert a una alçada de 2800 ft

METAR: KRKR 171715Z AUTO 19013G22KT 10SM OVC028 18/12 A2981 RMK AO2

Hora: 11:39 (17:39 UTC)


TAF: manca

Observacions i pronòstics meteorològics de més de 4000 aeroports (METAR i TAF).

Les estacions disponibles són els punts grocs i vermells al mapa.

Posi el ratolí al punt desitjat per veure el nom de l'estació.

Feu clic per veure les observacions i els pronòstics meteorològics.

Per canviar el mapa: feu clic els botons verds amb una creu de color negre per apropar; al botó verd amb un guió per allunyar la imatge; o en les fletxes verdes per a mapes adjacents.


METAR-TAF: